User: anonymous   Login
Location: Unspecified
(0.0000°N, 0.0000°E)
Time: 12:27:18
(UTC+00:00)
Language:

NO-84 - Orbit

View from above orbital plane
View from above orbital plane
View from above satellite
View from above satellite

Ground track
Ground track

The orbit data is extracted from the following two-line orbital elements,

1 40654U 15025D   20191.36416717  .00006093  00000-0  75203-4 0  9797
2 40654  54.9855 199.6316 0111845 244.4166 114.5188 15.54663568172433
Epoch (UTC): 09 July 2020 08:44:24
Eccentricity: 0.0111845
inclination: 54.9855°
perigee height: 327 km
apogee height: 479 km
right ascension of ascending node: 199.6316°
argument of perigee: 244.4166°
revolutions per day: 15.54663568
mean anomaly at epoch: 114.5188°
orbit number at epoch: 17243

The dashed part of the orbit path shows where the satellite is in the earth's shadow,  

DLR